Darstellungsparameter: Aktuell verwendete Einstellungen:
Skalierung der Graphiken ... ?
xyx+y,   Skalierungsfaktor:      Skalierung: Modus: x, Faktor: 1
Darstellungszeitraum ... ?
Vom - - bis: - -   Zeitraum: 17.04.2021 - 17.04.2021
Min/Max/Avg-Anzeige ... ?
Zeige MMA aktuell
Zeige MMA Monat
Zeige MMA alles
Zeige --A aktuell
Zeige --A Monat
Zeige --A alles
Keine MMA-Anzeige
MMA:
Minimum Maximum Average (ber die Originaldaten)
MMA-Basis: 14.04.2020 - 16.05.2020
Quicknavigation für Darstellung... ?
Tage:      1T, 2T, 3T, 5T -1T -2T -3T -5T +1T +2T +3T +5T
Wochen: 1W, 2W, 3W -1W -2W -3W +1W +2W +3W
Monate: 1M, 3M, 6M -1M -3M -6M +1M +3M +6M
Jahre:    1J, 3J, 5J, 10J -1J -3J -5J -10J +1J +3J +5J +10J
Nutze für die Darstellung ... ?
Originaldaten oder Mittelwerte auf ...
Stundenbasis Tagesbasis Wochenbasis
Monatsbasis Jahresbasis      Datenbasis: Original-Daten
Darstellen als:
Statistik (Auto) Statistik J:M      Darstellung:

Der gewünschte Datumsbereich war nicht gültig/verfügbar und wurde korrigiert....
Das angegebene Enddatum (12.05.2030 23:59:59) liegt in der Zukunft.
Das angegebene Startdatum (13.04.2030 00:00:00) liegt in der Zukunft.


Zur Graphik,    zurück zur Übersicht aller Sensoren.
 
Tabellarische Datenbersicht: ?
 
Sensor: Nr:Datum:Temp:Abs-Feuchte:Windchill:Wind:
Aussen-T/F 1 17-04-2021 02:00:00 4.1 C 5.63 g/m*3 4.1 C 0 km/h
2 17-04-2021 02:05:00 4.1 C 5.63 g/m*3 4.1 C 0 km/h
3 17-04-2021 02:10:00 4.1 C 5.63 g/m*3 4.1 C 0 km/h
4 17-04-2021 02:15:00 4.1 C 5.63 g/m*3 4.1 C 0 km/h
5 17-04-2021 02:20:00 4.1 C 5.63 g/m*3 4.1 C 0 km/h
6 17-04-2021 02:25:00 4 C 5.59 g/m*3 4 C 0 km/h
7 17-04-2021 02:30:00 4 C 5.59 g/m*3 4 C 0 km/h
8 17-04-2021 02:35:00 4 C 5.59 g/m*3 4 C 0 km/h
9 17-04-2021 02:40:00 4 C 5.59 g/m*3 4 C 0 km/h
10 17-04-2021 02:45:00 3.9 C 5.56 g/m*3 3.9 C 0 km/h
11 17-04-2021 02:50:00 3.9 C 5.56 g/m*3 3.9 C 0 km/h
12 17-04-2021 02:55:00 3.9 C 5.56 g/m*3 3.9 C 0 km/h
13 17-04-2021 03:00:00 3.9 C 5.56 g/m*3 3.9 C 0 km/h
14 17-04-2021 03:05:00 3.9 C 5.62 g/m*3 3.9 C 0 km/h
15 17-04-2021 03:10:00 3.9 C 5.56 g/m*3 3.9 C 0 km/h
16 17-04-2021 03:15:00 3.9 C 5.56 g/m*3 3.9 C 0 km/h
17 17-04-2021 03:20:00 3.9 C 5.56 g/m*3 3.9 C 0 km/h
18 17-04-2021 03:25:00 3.9 C 5.56 g/m*3 3.9 C 0 km/h
19 17-04-2021 03:30:00 3.9 C 5.56 g/m*3 3.9 C 0 km/h
20 17-04-2021 03:35:00 3.9 C 5.56 g/m*3 3.9 C 0 km/h
21 17-04-2021 03:40:00 3.9 C 5.56 g/m*3 3.9 C 0 km/h
22 17-04-2021 03:45:00 3.9 C 5.56 g/m*3 3.9 C 0 km/h
23 17-04-2021 03:50:00 3.8 C 5.52 g/m*3 3.8 C 0 km/h
24 17-04-2021 03:55:00 3.8 C 5.52 g/m*3 3.8 C 0 km/h
25 17-04-2021 04:00:00 3.8 C 5.52 g/m*3 3.8 C 0 km/h
Sensor: Nr:Datum:Temp:Abs-Feuchte:Windchill:Wind:
Aussen-T/F 26 17-04-2021 04:05:00 3.8 C 5.52 g/m*3 3.8 C 0 km/h
27 17-04-2021 04:10:00 3.7 C 5.48 g/m*3 3.7 C 0 km/h
28 17-04-2021 04:15:00 3.6 C 5.45 g/m*3 3.6 C 0 km/h
29 17-04-2021 04:20:00 3.6 C 5.51 g/m*3 3.6 C 0 km/h
30 17-04-2021 04:25:00 3.6 C 5.45 g/m*3 3.6 C 0 km/h
31 17-04-2021 04:30:00 3.4 C 5.37 g/m*3 3.4 C 0 km/h
32 17-04-2021 04:35:00 3.4 C 5.37 g/m*3 3.4 C 0 km/h
33 17-04-2021 04:40:00 3.3 C 5.4 g/m*3 3.3 C 0 km/h
34 17-04-2021 04:45:00 3.3 C 5.4 g/m*3 3.3 C 0 km/h
35 17-04-2021 04:50:00 3.2 C 5.36 g/m*3 3.2 C 0 km/h
36 17-04-2021 04:55:00 3.1 C 5.27 g/m*3 3.1 C 0 km/h
37 17-04-2021 05:00:00 2.9 C 5.2 g/m*3 2.9 C 0 km/h
38 17-04-2021 05:05:00 2.8 C 5.22 g/m*3 2.8 C 0 km/h
39 17-04-2021 05:10:00 2.7 C 5.19 g/m*3 2.7 C 0 km/h
40 17-04-2021 05:15:00 2.5 C 5.12 g/m*3 2.5 C 0 km/h
41 17-04-2021 05:20:00 2.4 C 5.08 g/m*3 2.4 C 0 km/h
42 17-04-2021 05:25:00 2.3 C 5.1 g/m*3 2.3 C 0 km/h
43 17-04-2021 05:30:00 2.3 C 5.1 g/m*3 2.3 C 0 km/h
44 17-04-2021 05:35:00 2.3 C 5.1 g/m*3 2.3 C 0 km/h
45 17-04-2021 05:40:00 2.3 C 5.16 g/m*3 2.3 C 0 km/h
46 17-04-2021 05:45:00 2.3 C 5.1 g/m*3 2.3 C 0 km/h
47 17-04-2021 05:50:00 2.2 C 5.13 g/m*3 2.2 C 0 km/h
48 17-04-2021 05:55:00 2.2 C 5.13 g/m*3 2.2 C 0 km/h
49 17-04-2021 06:00:00 2.1 C 5.09 g/m*3 2.1 C 0 km/h
50 17-04-2021 06:05:00 1.9 C 4.97 g/m*3 1.9 C 0 km/h
Sensor: Nr:Datum:Temp:Abs-Feuchte:Windchill:Wind:
Aussen-T/F 51 17-04-2021 06:10:00 1.8 C 4.93 g/m*3 1.8 C 0 km/h
52 17-04-2021 06:15:00 1.7 C 4.95 g/m*3 1.7 C 0 km/h
53 17-04-2021 06:20:00 1.7 C 4.95 g/m*3 1.7 C 0 km/h
54 17-04-2021 06:25:00 1.6 C 4.92 g/m*3 1.6 C 0 km/h
55 17-04-2021 06:30:00 1.5 C 4.89 g/m*3 1.5 C 0 km/h
56 17-04-2021 06:35:00 1.4 C 4.85 g/m*3 1.4 C 0 km/h
57 17-04-2021 06:40:00 1.4 C 4.91 g/m*3 1.4 C 0 km/h
58 17-04-2021 06:45:00 1.4 C 4.91 g/m*3 1.4 C 0 km/h
59 17-04-2021 06:50:00 1.3 C 4.87 g/m*3 1.3 C 0 km/h
60 17-04-2021 06:55:00 1.3 C 4.87 g/m*3 1.3 C 0 km/h
61 17-04-2021 07:00:00 1.3 C 4.87 g/m*3 1.3 C 0 km/h
62 17-04-2021 07:05:00 1.3 C 4.87 g/m*3 1.3 C 0 km/h
63 17-04-2021 07:10:00 1.3 C 4.87 g/m*3 1.3 C 0 km/h
64 17-04-2021 07:15:00 1.4 C 4.96 g/m*3 1.4 C 0 km/h
65 17-04-2021 07:20:00 1.4 C 4.96 g/m*3 1.4 C 0 km/h
66 17-04-2021 07:25:00 1.5 C 4.99 g/m*3 1.5 C 0 km/h
67 17-04-2021 07:30:00 1.5 C 4.99 g/m*3 1.5 C 0 km/h
68 17-04-2021 07:35:00 1.6 C 5.03 g/m*3 1.6 C 0 km/h
69 17-04-2021 07:40:00 1.6 C 5.03 g/m*3 1.6 C 0 km/h
70 17-04-2021 07:45:00 1.7 C 5.06 g/m*3 1.7 C 0 km/h
71 17-04-2021 07:50:00 1.8 C 5.1 g/m*3 1.8 C 0 km/h
72 17-04-2021 07:55:00 1.8 C 5.1 g/m*3 1.8 C 0 km/h
73 17-04-2021 08:00:00 1.9 C 5.19 g/m*3 1.9 C 0 km/h
74 17-04-2021 08:05:00 2.1 C 5.26 g/m*3 2.1 C 0 km/h
75 17-04-2021 08:10:00 2.2 C 5.29 g/m*3 2.2 C 0 km/h
Sensor: Nr:Datum:Temp:Abs-Feuchte:Windchill:Wind:
Aussen-T/F 76 17-04-2021 08:15:00 2.3 C 5.33 g/m*3 2.3 C 0 km/h
77 17-04-2021 08:20:00 2.4 C 5.37 g/m*3 2.4 C 0 km/h
78 17-04-2021 08:25:00 2.5 C 5.4 g/m*3 2.5 C 0 km/h
79 17-04-2021 08:30:00 2.6 C 5.38 g/m*3 2.6 C 0 km/h
80 17-04-2021 08:35:00 2.6 C 5.44 g/m*3 2.6 C 0 km/h
81 17-04-2021 08:40:00 2.7 C 5.42 g/m*3 2.7 C 0 km/h
82 17-04-2021 08:45:00 2.7 C 5.42 g/m*3 2.7 C 0 km/h
83 17-04-2021 08:50:00 2.8 C 5.46 g/m*3 2.8 C 0 km/h
84 17-04-2021 08:55:00 2.9 C 5.55 g/m*3 2.9 C 0 km/h
85 17-04-2021 09:00:00 3.2 C 5.66 g/m*3 3.2 C 0 km/h
86 17-04-2021 09:05:00 3.4 C 5.74 g/m*3 3.4 C 0 km/h
87 17-04-2021 09:10:00 3.6 C 5.82 g/m*3 3.6 C 0 km/h
88 17-04-2021 09:15:00 3.8 C 5.83 g/m*3 3.8 C 0 km/h
89 17-04-2021 09:20:00 3.9 C 5.87 g/m*3 3.9 C 0 km/h
90 17-04-2021 09:25:00 4.1 C 5.95 g/m*3 4.1 C 0 km/h
91 17-04-2021 09:30:00 4.3 C 5.97 g/m*3 4.3 C 0 km/h
92 17-04-2021 09:35:00 4.4 C 6.01 g/m*3 4.4 C 0 km/h
93 17-04-2021 09:40:00 4.6 C 6.02 g/m*3 4.6 C 0 km/h
94 17-04-2021 09:45:00 4.8 C 5.97 g/m*3 4.8 C 0 km/h
95 17-04-2021 09:50:00 5.1 C 5.88 g/m*3 5.1 C 0 km/h
96 17-04-2021 09:55:00 5.4 C 5.93 g/m*3 5.4 C 0 km/h
97 17-04-2021 10:00:00 5.8 C 6.02 g/m*3 5.8 C 0 km/h
98 17-04-2021 10:05:00 6.3 C 5.77 g/m*3 4.64 C 8.1 km/h
99 17-04-2021 10:10:00 6.8 C 5.51 g/m*3 6.8 C 4.8 km/h
100 17-04-2021 10:15:00 7.2 C 5.65 g/m*3 5.69 C 8.1 km/h
Sensor: Nr:Datum:Temp:Abs-Feuchte:Windchill:Wind:
Aussen-T/F 101 17-04-2021 10:20:00 7.4 C 5.57 g/m*3 5.93 C 8.1 km/h
102 17-04-2021 10:25:00 7.7 C 5.84 g/m*3 7.7 C 4.8 km/h
103 17-04-2021 10:30:00 7.7 C 5.68 g/m*3 7.7 C 3.2 km/h
104 17-04-2021 10:35:00 7.8 C 5.47 g/m*3 7.8 C 3.2 km/h
105 17-04-2021 10:40:00 8 C 5.29 g/m*3 7.06 C 6.4 km/h
106 17-04-2021 10:45:00 8.2 C 5.28 g/m*3 8.2 C 1.6 km/h
107 17-04-2021 10:50:00 8.3 C 5.06 g/m*3 6.37 C 11.3 km/h
108 17-04-2021 10:55:00 8.5 C 5.04 g/m*3 6.9 C 9.7 km/h
109 17-04-2021 11:00:00 8.8 C 4.79 g/m*3 6.5 C 14.5 km/h
110 17-04-2021 11:05:00 9.1 C 4.7 g/m*3 6.67 C 16.1 km/h
111 17-04-2021 11:10:00 9.3 C 4.85 g/m*3 6.92 C 16.1 km/h
112 17-04-2021 11:15:00 9.5 C 4.73 g/m*3 6.98 C 17.7 km/h
113 17-04-2021 11:20:00 9.6 C 4.76 g/m*3 7.7 C 12.9 km/h
114 17-04-2021 11:25:00 9.7 C 4.89 g/m*3 7.82 C 12.9 km/h
115 17-04-2021 11:30:00 9.9 C 4.86 g/m*3 8.06 C 12.9 km/h

Legende:
   Min
   Max


Maximal/Minimal-Werte vom 14.04.2020 - 16.05.2020

Sensor Min Max Avg
Temp
(Aussen-T/F)
-0.1 °C
15-04-2020  06:55:00
26.2 °C
17-04-2020  18:05:00
11.98 °C

Die Daten stammen von einer Davis Vantage Pro 2 Wetter-Station und werden unter Linux mit der Software wview2wettercgi und aufbereitet. Alle Angaben erfolgen ohne Gewähr für ihre Vollständigkeit oder Richtigkeit.
Kontakt: Rainer Krienke krienke@uni-koblenz.de . Meine Webseiten an der Uni Koblenz oder privat.
Version: $Revision: 0.78 $